Regional Weather Roundup
Issued by NWS Tiyan, Guam

Home | Current Version | Previous Version | Text Only | Print | Product List | Glossary On
Versions: 1 2 3 4 5 6 7 8 9 10 11 12 13 14 15 16 17 18 19 20 21 22 23 24 25 26 27
000
ASGM40 PGUM 252212
RWRGUM
WEATHER ROUNDUP FOR THE MARIANAS
NATIONAL WEATHER SERVICE TIYAN GU
800 AM CHST SUN MAR 26 2017

GUZ001>004-252300-
MARIANA ISLANDS-

CITY           SKY/WX    TMP DP  RH WIND       PRES   REMARKS
GUAM AIRPORT   SUNNY     81  75  83 NE7       29.99R
ANDERSEN AFB   PTSUNNY   81  73  78 NE13      30.00R
ROTA AIRPORT   MOSUNNY   79  73  83 E10       29.99R
TINIAN AP      MOSUNNY   81  73  78 E7        29.98R
SAIPAN AP      MOSUNNY   82  73  74 E10       29.99R

$$





USA.gov is the U.S. government's official web portal to all federal, state and local government web resources and services.